{"data":{"norad_id":37188,"intl_designator":"2010-054A","name":"GLOBALSTAR M079","alt_names":[],"object_type":"PAYLOAD","status":"ACTIVE","operator":null,"country":"GLOB","launch_date":"2010-10-19","launch_site_code":"TYMSC","launch_vehicle":null,"mission":null,"orbit_class":"UNKNOWN","rcs_meters":4.8334,"size_class":null,"mass_kg":null,"dimensions":null,"purposes":["comms"],"wikipedia_slug":null,"has_3d_model":false,"image_url":null,"decayed_at":null,"tle_current":{"epoch":"2026-05-25T02:03:59.501376Z","epoch_age_seconds":64851,"freshness":"FRESH","line1":"1 37188U 10054A   26145.08610534 -.00000099  00000+0  24676-4 0  9999","line2":"2 37188  52.0013 178.9937 0000161 289.7015  97.0527 12.62265829719633","mean_motion":12.62265829,"eccentricity":1.61e-5,"inclination_deg":52.0013,"raan_deg":178.9937,"arg_perigee_deg":289.7015,"mean_anomaly_deg":97.0527,"bstar":2.4676e-5,"rev_number":71963,"period_min":114.08056582985,"perigee_km":1413.4806393047,"apogee_km":1413.7315334321,"semimajor_km":7791.7430863684,"source":"CELESTRAK","updated_at":"2026-05-25T13:38:23.039611Z"}}}